| time (UTC) | temp F | wind direction | speed MPH | gust MPH | rain 1hr in | rain 24hr in | rain mn in | humidity % | barometer mb |
| 20260905203632 | 56 | 273 | 0.0 | 0.0 | 0.00 | 0.00 | 0.00 | 91 | 1025.3 |
| 20260905203118 | 56 | 273 | 0.0 | 0.0 | 0.00 | 0.00 | 0.00 | 91 | 1025.3 |
| 20260905202638 | 56 | 273 | 0.0 | 0.0 | 0.00 | 0.00 | 0.00 | 90 | 1025.3 |
| 20260905202157 | 56 | 273 | 0.0 | 0.0 | 0.00 | 0.00 | 0.00 | 90 | 1025.2 |
| 20260905201629 | 56 | 273 | 0.0 | 0.0 | 0.00 | 0.00 | 0.00 | 90 | 1025.2 |
| 20260905201118 | 56 | 273 | 0.0 | 0.0 | 0.00 | 0.00 | 0.00 | 90 | 1025.2 |
| 20260905200628 | 56 | 273 | 0.0 | 0.0 | 0.00 | 0.00 | 0.00 | 89 | 1025.2 |
| 20260905200129 | 57 | 273 | 0.0 | 0.0 | 0.00 | 0.00 | 0.00 | 89 | 1025.1 |
| 20260905195626 | 57 | 273 | 0.0 | 0.0 | 0.00 | 0.00 | 0.00 | 89 | 1025.1 |
| 20260905195133 | 57 | 273 | 0.0 | 0.0 | 0.00 | 0.00 | 0.00 | 88 | 1025.0 |
| 20260905194627 | 57 | 273 | 0.0 | 0.0 | 0.00 | 0.00 | 0.00 | 87 | 1025.1 |
| 20260905194136 | 57 | 273 | 0.0 | 0.0 | 0.00 | 0.00 | 0.00 | 87 | 1025.1 |
| 20260905193638 | 57 | 273 | 0.0 | 0.0 | 0.00 | 0.00 | 0.00 | 87 | 1025.1 |
| 20260905193133 | 58 | 273 | 0.0 | 0.0 | 0.00 | 0.00 | 0.00 | 86 | 1025.0 |
| 20260905192639 | 58 | 273 | 0.0 | 0.0 | 0.00 | 0.00 | 0.00 | 86 | 1024.9 |
| 20260905192114 | 58 | 273 | 0.0 | 1.0 | 0.00 | 0.00 | 0.00 | 85 | 1024.9 |
| 20260905191645 | 59 | 273 | 0.0 | 1.0 | 0.00 | 0.00 | 0.00 | 84 | 1025.0 |
| 20260905191154 | 59 | 273 | 0.0 | 1.0 | 0.00 | 0.00 | 0.00 | 83 | 1024.8 |
| 20260905190618 | 59 | 308 | 0.0 | 1.0 | 0.00 | 0.00 | 0.00 | 83 | 1024.7 |
| 20260905190147 | 60 | 308 | 0.0 | 1.0 | 0.00 | 0.00 | 0.00 | 82 | 1024.7 |
| 20260905185636 | 61 | 308 | 0.0 | 1.0 | 0.00 | 0.00 | 0.00 | 80 | 1024.8 |
| 20260905185131 | 61 | 308 | 0.0 | 2.0 | 0.00 | 0.00 | 0.00 | 79 | 1024.8 |
| 20260905184621 | 61 | 308 | 0.0 | 3.0 | 0.00 | 0.00 | 0.00 | 78 | 1024.8 |
| 20260905184143 | 62 | 308 | 1.0 | 3.0 | 0.00 | 0.00 | 0.00 | 78 | 1024.7 |
| 20260905183639 | 62 | 257 | 1.0 | 2.0 | 0.00 | 0.00 | 0.00 | 78 | 1024.7 |
| 20260905183142 | 62 | 302 | 0.0 | 2.0 | 0.00 | 0.00 | 0.00 | 78 | 1024.6 |
| 20260905182633 | 62 | 302 | 0.0 | 2.0 | 0.00 | 0.00 | 0.00 | 77 | 1024.6 |
| 20260905182135 | 62 | 302 | 0.0 | 2.0 | 0.00 | 0.00 | 0.00 | 77 | 1024.5 |
| 20260905181635 | 62 | 302 | 0.0 | 2.0 | 0.00 | 0.00 | 0.00 | 77 | 1024.5 |
| 20260905181129 | 62 | 302 | 0.0 | 2.0 | 0.00 | 0.00 | 0.00 | 76 | 1024.5 |
| 20260905180628 | 62 | 302 | 0.0 | 3.0 | 0.00 | 0.00 | 0.00 | 76 | 1024.5 |
| 20260905180127 | 62 | 300 | 0.0 | 3.0 | 0.00 | 0.00 | 0.00 | 76 | 1024.5 |
| 20260905175658 | 62 | 5 | 1.0 | 2.0 | 0.00 | 0.00 | 0.00 | 76 | 1024.5 |
| 20260905175145 | 62 | 287 | 1.0 | 3.0 | 0.00 | 0.00 | 0.00 | 76 | 1024.4 |
| 20260905174618 | 62 | 284 | 1.0 | 3.0 | 0.00 | 0.00 | 0.00 | 75 | 1024.4 |
| 20260905174123 | 62 | 281 | 1.0 | 3.0 | 0.00 | 0.00 | 0.00 | 76 | 1024.5 |
| 20260905173632 | 62 | 296 | 1.0 | 3.0 | 0.00 | 0.00 | 0.00 | 76 | 1024.4 |
| 20260905173132 | 63 | 343 | 0.0 | 4.0 | 0.00 | 0.00 | 0.00 | 74 | 1024.4 |
| 20260905172642 | 63 | 287 | 1.0 | 5.0 | 0.00 | 0.00 | 0.00 | 73 | 1024.4 |
| 20260905172131 | 63 | 269 | 2.0 | 5.0 | 0.00 | 0.00 | 0.00 | 73 | 1024.4 |
| 20260905171645 | 63 | 275 | 1.0 | 7.0 | 0.00 | 0.00 | 0.00 | 71 | 1024.3 |
| 20260905171121 | 63 | 166 | 2.0 | 7.0 | 0.00 | 0.00 | 0.00 | 71 | 1024.3 |
| 20260905170655 | 64 | 285 | 2.0 | 5.0 | 0.00 | 0.00 | 0.00 | 70 | 1024.2 |
| 20260905170123 | 64 | 280 | 2.0 | 6.0 | 0.00 | 0.00 | 0.00 | 70 | 1024.2 |
| 20260905165640 | 64 | 300 | 2.0 | 7.0 | 0.00 | 0.00 | 0.00 | 70 | 1024.3 |
| 20260905165115 | 64 | 329 | 3.0 | 7.0 | 0.00 | 0.00 | 0.00 | 71 | 1024.1 |
| 20260905164630 | 64 | 288 | 2.0 | 8.0 | 0.00 | 0.00 | 0.00 | 71 | 1024.2 |
| 20260905164117 | 64 | 350 | 3.0 | 8.0 | 0.00 | 0.00 | 0.00 | 71 | 1024.2 |
| 20260905163646 | 65 | 338 | 3.0 | 7.0 | 0.00 | 0.00 | 0.00 | 71 | 1024.0 |
| 20260905163125 | 65 | 298 | 2.0 | 5.0 | 0.00 | 0.00 | 0.00 | 70 | 1024.0 |
| 20260905162631 | 65 | 290 | 2.0 | 8.0 | 0.00 | 0.00 | 0.00 | 69 | 1024.0 |
| 20260905162139 | 65 | 305 | 3.0 | 8.0 | 0.00 | 0.00 | 0.00 | 69 | 1024.0 |
| 20260905161705 | 65 | 85 | 2.0 | 5.0 | 0.00 | 0.00 | 0.00 | 69 | 1023.9 |
| 20260905161124 | 65 | 226 | 1.0 | 7.0 | 0.00 | 0.00 | 0.00 | 70 | 1023.9 |
| 20260905160623 | 65 | 272 | 2.0 | 7.0 | 0.00 | 0.00 | 0.00 | 70 | 1023.8 |
| 20260905160128 | 65 | 244 | 1.0 | 6.0 | 0.00 | 0.00 | 0.00 | 72 | 1023.7 |
| 20260905155645 | 65 | 302 | 2.0 | 8.0 | 0.00 | 0.00 | 0.00 | 71 | 1023.6 |
| 20260905155147 | 65 | 259 | 3.0 | 9.0 | 0.00 | 0.00 | 0.00 | 69 | 1023.6 |
| 20260905154628 | 65 | 299 | 3.0 | 9.0 | 0.00 | 0.00 | 0.00 | 70 | 1023.5 |
| 20260905154148 | 65 | 18 | 2.0 | 6.0 | 0.00 | 0.00 | 0.00 | 70 | 1023.4 |
| 20260905153617 | 65 | 296 | 1.0 | 8.0 | 0.00 | 0.00 | 0.00 | 69 | 1023.4 |
| 20260905153140 | 65 | 322 | 2.0 | 9.0 | 0.00 | 0.00 | 0.00 | 69 | 1023.4 |
| 20260905152638 | 66 | 293 | 3.0 | 9.0 | 0.00 | 0.00 | 0.00 | 68 | 1023.3 |
| 20260905152148 | 66 | 346 | 3.0 | 9.0 | 0.00 | 0.00 | 0.00 | 68 | 1023.3 |
| 20260905151645 | 66 | 205 | 4.0 | 10.0 | 0.00 | 0.00 | 0.00 | 68 | 1023.3 |
| 20260905151145 | 65 | 291 | 3.0 | 10.0 | 0.00 | 0.00 | 0.00 | 68 | 1023.2 |
| 20260905150631 | 65 | 284 | 3.0 | 10.0 | 0.00 | 0.00 | 0.00 | 68 | 1023.2 |
| 20260905150122 | 66 | 254 | 4.0 | 11.0 | 0.00 | 0.00 | 0.00 | 68 | 1023.2 |
| 20260905145648 | 65 | 300 | 4.0 | 11.0 | 0.00 | 0.00 | 0.00 | 69 | 1023.1 |
| 20260905145121 | 65 | 308 | 3.0 | 10.0 | 0.00 | 0.00 | 0.00 | 69 | 1023.1 |
| 20260905144618 | 65 | 248 | 3.0 | 10.0 | 0.00 | 0.00 | 0.00 | 69 | 1023.1 |
| 20260905144143 | 65 | 242 | 4.0 | 10.0 | 0.00 | 0.00 | 0.00 | 68 | 1023.0 |
| 20260905143634 | 66 | 244 | 5.0 | 13.0 | 0.00 | 0.00 | 0.00 | 67 | 1023.0 |
| 20260905143132 | 66 | 329 | 5.0 | 13.0 | 0.00 | 0.00 | 0.00 | 66 | 1022.9 |
| 20260905142625 | 67 | 302 | 3.0 | 9.0 | 0.00 | 0.00 | 0.00 | 69 | 1022.9 |
| 20260905142123 | 66 | 360 | 4.0 | 9.0 | 0.00 | 0.00 | 0.00 | 68 | 1022.8 |
| 20260905141621 | 67 | 297 | 3.0 | 11.0 | 0.00 | 0.00 | 0.00 | 66 | 1022.8 |
| 20260905141133 | 67 | 296 | 3.0 | 11.0 | 0.00 | 0.00 | 0.00 | 66 | 1022.6 |
| 20260905140657 | 67 | 289 | 3.0 | 8.0 | 0.00 | 0.00 | 0.00 | 67 | 1022.7 |
| 20260905140156 | 66 | 302 | 2.0 | 15.0 | 0.00 | 0.00 | 0.00 | 68 | 1022.6 |
| 20260905135622 | 67 | 257 | 5.0 | 15.0 | 0.00 | 0.00 | 0.00 | 65 | 1022.7 |
| 20260905135116 | 67 | 294 | 3.0 | 11.0 | 0.00 | 0.00 | 0.00 | 64 | 1022.7 |
| 20260905134633 | 68 | 5 | 5.0 | 13.0 | 0.00 | 0.00 | 0.00 | 61 | 1022.6 |
| 20260905134116 | 68 | 284 | 3.0 | 13.0 | 0.00 | 0.00 | 0.00 | 64 | 1022.5 |
| 20260905133622 | 69 | 343 | 4.0 | 8.0 | 0.00 | 0.00 | 0.00 | 64 | 1022.5 |
| 20260905133141 | 68 | 253 | 3.0 | 10.0 | 0.00 | 0.00 | 0.00 | 65 | 1022.4 |
| 20260905132625 | 66 | 171 | 4.0 | 10.0 | 0.00 | 0.00 | 0.00 | 65 | 1022.3 |
| 20260905132118 | 67 | 177 | 4.0 | 9.0 | 0.00 | 0.00 | 0.00 | 65 | 1022.3 |
| 20260905131628 | 67 | 242 | 5.0 | 10.0 | 0.00 | 0.00 | 0.00 | 64 | 1022.2 |
| 20260905131157 | 69 | 342 | 3.0 | 11.0 | 0.00 | 0.00 | 0.00 | 66 | 1022.1 |
| 20260905130635 | 69 | 267 | 5.0 | 11.0 | 0.00 | 0.00 | 0.00 | 62 | 1022.0 |
| 20260905130139 | 70 | 323 | 4.0 | 10.0 | 0.00 | 0.00 | 0.00 | 62 | 1022.0 |
| 20260905125653 | 68 | 272 | 4.0 | 16.0 | 0.00 | 0.04 | 0.00 | 65 | 1022.1 |
| 20260905125135 | 68 | 360 | 4.0 | 16.0 | 0.00 | 0.04 | 0.00 | 65 | 1022.1 |
| 20260905124618 | 69 | 142 | 2.0 | 15.0 | 0.00 | 0.04 | 0.00 | 67 | 1022.1 |
| 20260905124127 | 69 | 304 | 5.0 | 15.0 | 0.00 | 0.04 | 0.00 | 64 | 1021.9 |
| 20260905123641 | 70 | 252 | 4.0 | 12.0 | 0.00 | 0.04 | 0.00 | 64 | 1021.9 |
| 20260905123203 | 70 | 261 | 2.0 | 11.0 | 0.00 | 0.04 | 0.00 | 64 | 1021.8 |
| 20260905122625 | 70 | 344 | 3.0 | 11.0 | 0.00 | 0.04 | 0.00 | 63 | 1021.7 |
| 20260905122133 | 69 | 343 | 4.0 | 9.0 | 0.00 | 0.04 | 0.00 | 65 | 1021.7 |
| 20260905121644 | 68 | 83 | 2.0 | 13.0 | 0.00 | 0.04 | 0.00 | 66 | 1021.6 |
| 20260905121121 | 69 | 315 | 4.0 | 13.0 | 0.00 | 0.04 | 0.00 | 63 | 1021.6 |
| 20260905120631 | 69 | 296 | 4.0 | 11.0 | 0.00 | 0.04 | 0.00 | 65 | 1021.5 |
| 20260905120127 | 69 | 279 | 5.0 | 15.0 | 0.00 | 0.04 | 0.00 | 62 | 1021.6 |
| 20260905115619 | 70 | 293 | 6.0 | 15.0 | 0.00 | 0.16 | 0.00 | 64 | 1021.6 |
| 20260905115125 | 68 | 267 | 5.0 | 12.0 | 0.00 | 0.16 | 0.00 | 66 | 1021.6 |
| 20260905114703 | 68 | 309 | 5.0 | 12.0 | 0.00 | 0.16 | 0.00 | 63 | 1021.6 |
| 20260905114119 | 69 | 272 | 3.0 | 10.0 | 0.00 | 0.16 | 0.00 | 64 | 1021.5 |
| 20260905113643 | 68 | 234 | 3.0 | 10.0 | 0.00 | 0.16 | 0.00 | 66 | 1021.4 |
| 20260905113146 | 69 | 207 | 4.0 | 12.0 | 0.00 | 0.16 | 0.00 | 62 | 1021.3 |
| 20260905112624 | 71 | 275 | 7.0 | 12.0 | 0.00 | 0.16 | 0.00 | 62 | 1021.2 |
| 20260905112124 | 72 | 269 | 3.0 | 14.0 | 0.00 | 0.16 | 0.00 | 63 | 1021.2 |
| 20260905111623 | 71 | 261 | 4.0 | 14.0 | 0.00 | 0.16 | 0.00 | 63 | 1021.1 |
| 20260905111142 | 70 | 350 | 2.0 | 8.0 | 0.00 | 0.16 | 0.00 | 67 | 1021.0 |
| 20260905110615 | 70 | 63 | 3.0 | 8.0 | 0.00 | 0.16 | 0.00 | 65 | 1021.1 |
| 20260905110118 | 70 | 309 | 3.0 | 9.0 | 0.00 | 0.16 | 0.00 | 67 | 1021.0 |
| 20260905105634 | 69 | 297 | 3.0 | 15.0 | 0.00 | 0.39 | 0.00 | 68 | 1020.9 |
| 20260905105124 | 66 | 265 | 5.0 | 15.0 | 0.00 | 0.39 | 0.00 | 67 | 1021.0 |
| 20260905104623 | 68 | 360 | 5.0 | 14.0 | 0.00 | 0.39 | 0.00 | 69 | 1020.9 |
| 20260905104143 | 69 | 252 | 4.0 | 14.0 | 0.00 | 0.39 | 0.00 | 65 | 1020.9 |
| 20260905103617 | 70 | 277 | 4.0 | 14.0 | 0.00 | 0.39 | 0.00 | 67 | 1020.7 |
| 20260905103115 | 68 | 292 | 3.0 | 12.0 | 0.00 | 0.39 | 0.00 | 68 | 1020.7 |
| 20260905102633 | 66 | 268 | 4.0 | 12.0 | 0.00 | 0.39 | 0.00 | 71 | 1020.6 |
| 20260905102116 | 66 | 288 | 2.0 | 13.0 | 0.00 | 0.39 | 0.00 | 69 | 1020.6 |
| 20260905101626 | 66 | 350 | 4.0 | 13.0 | 0.00 | 0.39 | 0.00 | 71 | 1020.5 |
| 20260905101116 | 65 | 261 | 5.0 | 12.0 | 0.00 | 0.39 | 0.00 | 72 | 1020.5 |
| 20260905100617 | 65 | 306 | 4.0 | 11.0 | 0.00 | 0.39 | 0.00 | 73 | 1020.4 |
| 20260905100119 | 65 | 298 | 5.0 | 15.0 | 0.00 | 0.39 | 0.00 | 72 | 1020.4 |
| 20260905095635 | 65 | 177 | 3.0 | 16.0 | 0.00 | 0.39 | 0.00 | 70 | 1020.3 |
| 20260905095132 | 66 | 305 | 5.0 | 16.0 | 0.00 | 0.39 | 0.00 | 71 | 1020.3 |
| 20260905094626 | 65 | 313 | 6.0 | 13.0 | 0.00 | 0.39 | 0.00 | 70 | 1020.2 |
| 20260905094116 | 65 | 223 | 5.0 | 13.0 | 0.00 | 0.39 | 0.00 | 71 | 1020.2 |
| 20260905093623 | 66 | 293 | 4.0 | 17.0 | 0.00 | 0.39 | 0.00 | 70 | 1020.1 |
| 20260905093140 | 66 | 301 | 5.0 | 17.0 | 0.00 | 0.39 | 0.00 | 70 | 1019.9 |
| 20260905092636 | 67 | 317 | 5.0 | 15.0 | 0.00 | 0.39 | 0.00 | 69 | 1019.9 |
| 20260905092125 | 67 | 32 | 4.0 | 13.0 | 0.00 | 0.39 | 0.00 | 73 | 1019.8 |
| 20260905091633 | 65 | 254 | 6.0 | 13.0 | 0.00 | 0.39 | 0.00 | 73 | 1019.8 |
| 20260905091120 | 65 | 235 | 6.0 | 13.0 | 0.00 | 0.39 | 0.00 | 72 | 1019.7 |
| 20260905090634 | 65 | 309 | 4.0 | 11.0 | 0.00 | 0.39 | 0.00 | 73 | 1019.7 |
| 20260905090117 | 65 | 329 | 5.0 | 14.0 | 0.00 | 0.39 | 0.00 | 73 | 1019.7 |
| 20260905085637 | 65 | 257 | 5.0 | 14.0 | 0.00 | 0.39 | 0.00 | 75 | 1019.6 |
| 20260905085127 | 65 | 349 | 3.0 | 9.0 | 0.00 | 0.39 | 0.00 | 75 | 1019.5 |
| 20260905084632 | 64 | 125 | 4.0 | 12.0 | 0.00 | 0.39 | 0.00 | 75 | 1019.5 |
| 20260905084139 | 64 | 341 | 5.0 | 15.0 | 0.00 | 0.39 | 0.00 | 75 | 1019.4 |
| 20260905083648 | 64 | 232 | 4.0 | 15.0 | 0.00 | 0.39 | 0.00 | 75 | 1019.3 |
| 20260905083128 | 65 | 286 | 2.0 | 12.0 | 0.00 | 0.39 | 0.00 | 77 | 1019.2 |
| 20260905082657 | 64 | 338 | 5.0 | 12.0 | 0.00 | 0.39 | 0.00 | 76 | 1019.1 |
| 20260905082144 | 64 | 302 | 3.0 | 12.0 | 0.00 | 0.39 | 0.00 | 78 | 1019.0 |
| 20260905081630 | 65 | 237 | 2.0 | 12.0 | 0.00 | 0.39 | 0.00 | 77 | 1018.9 |
| 20260905081129 | 64 | 48 | 4.0 | 12.0 | 0.00 | 0.39 | 0.00 | 78 | 1018.8 |
| 20260905080644 | 64 | 201 | 3.0 | 9.0 | 0.00 | 0.39 | 0.00 | 79 | 1018.7 |
| 20260905080124 | 64 | 236 | 2.0 | 10.0 | 0.00 | 0.39 | 0.00 | 79 | 1018.7 |
| 20260905075622 | 63 | 251 | 4.0 | 12.0 | 0.00 | 0.39 | 0.00 | 79 | 1018.6 |
| 20260905075114 | 64 | 51 | 3.0 | 12.0 | 0.00 | 0.39 | 0.00 | 78 | 1018.5 |
| 20260905074633 | 63 | 232 | 3.0 | 10.0 | 0.00 | 0.39 | 0.00 | 78 | 1018.6 |
| 20260905074142 | 63 | 242 | 5.0 | 8.0 | 0.00 | 0.39 | 0.00 | 79 | 1018.6 |
| 20260905073628 | 63 | 279 | 4.0 | 10.0 | 0.00 | 0.39 | 0.00 | 80 | 1018.5 |
| 20260905073132 | 63 | 159 | 3.0 | 12.0 | 0.00 | 0.39 | 0.00 | 80 | 1018.4 |
| 20260905072643 | 63 | 291 | 5.0 | 13.0 | 0.00 | 0.39 | 0.00 | 81 | 1018.4 |
| 20260905072122 | 62 | 240 | 4.0 | 9.0 | 0.00 | 0.39 | 0.00 | 82 | 1018.4 |
| 20260905071634 | 62 | 333 | 2.0 | 10.0 | 0.00 | 0.39 | 0.00 | 82 | 1018.3 |
| 20260905071152 | 62 | 268 | 3.0 | 10.0 | 0.00 | 0.39 | 0.00 | 82 | 1018.1 |
| 20260905070630 | 62 | 274 | 5.0 | 9.0 | 0.00 | 0.39 | 0.00 | 82 | 1018.1 |
| 20260905070140 | 62 | 250 | 3.0 | 9.0 | 0.00 | 0.39 | 0.00 | 83 | 1018.2 |
| 20260905065619 | 62 | 227 | 3.0 | 9.0 | 0.00 | 0.39 | 0.00 | 83 | 1018.2 |
| 20260905065141 | 62 | 240 | 4.0 | 14.0 | 0.00 | 0.39 | 0.00 | 83 | 1018.1 |
| 20260905064649 | 62 | 294 | 4.0 | 14.0 | 0.00 | 0.39 | 0.00 | 83 | 1018.0 |
| 20260905064124 | 62 | 235 | 4.0 | 10.0 | 0.00 | 0.39 | 0.00 | 84 | 1017.9 |
| 20260905063619 | 62 | 279 | 3.0 | 10.0 | 0.00 | 0.39 | 0.00 | 85 | 1017.8 |
| 20260905063153 | 62 | 101 | 3.0 | 10.0 | 0.00 | 0.39 | 0.00 | 86 | 1017.8 |
| 20260905062633 | 61 | 221 | 2.0 | 7.0 | 0.00 | 0.39 | 0.00 | 88 | 1017.8 |
| 20260905062128 | 60 | 213 | 2.0 | 6.0 | 0.00 | 0.39 | 0.00 | 89 | 1017.7 |
| 20260905061643 | 60 | 188 | 2.0 | 6.0 | 0.00 | 0.39 | 0.00 | 90 | 1017.6 |
| 20260905061115 | 59 | 217 | 2.0 | 6.0 | 0.00 | 0.39 | 0.00 | 90 | 1017.5 |
| 20260905060622 | 59 | 242 | 1.0 | 3.0 | 0.00 | 0.39 | 0.00 | 91 | 1017.5 |
| 20260905060118 | 58 | 190 | 1.0 | 3.0 | 0.00 | 0.39 | 0.00 | 92 | 1017.5 |
| 20260905055645 | 58 | 209 | 2.0 | 3.0 | 0.00 | 0.39 | 0.00 | 92 | 1017.5 |
| 20260905055201 | 57 | 241 | 1.0 | 2.0 | 0.00 | 0.39 | 0.00 | 92 | 1017.5 |
| 20260905054621 | 57 | 194 | 1.0 | 4.0 | 0.00 | 0.39 | 0.00 | 92 | 1017.4 |
| 20260905054117 | 57 | 188 | 1.0 | 4.0 | 0.00 | 0.39 | 0.00 | 92 | 1017.3 |
| 20260905053622 | 57 | 221 | 1.0 | 4.0 | 0.00 | 0.39 | 0.00 | 92 | 1017.3 |
| 20260905053139 | 57 | 240 | 1.0 | 4.0 | 0.00 | 0.39 | 0.00 | 92 | 1017.2 |
| 20260905052654 | 56 | 215 | 1.0 | 4.0 | 0.00 | 0.39 | 0.00 | 92 | 1017.1 |
| 20260905052126 | 56 | 185 | 1.0 | 3.0 | 0.00 | 0.39 | 0.00 | 92 | 1017.1 |
| 20260905051626 | 56 | 217 | 0.0 | 3.0 | 0.00 | 0.39 | 0.00 | 92 | 1017.0 |
| 20260905051143 | 56 | 217 | 1.0 | 4.0 | 0.00 | 0.39 | 0.00 | 92 | 1016.9 |
| 20260905050630 | 56 | 163 | 1.0 | 4.0 | 0.00 | 0.39 | 0.00 | 92 | 1016.9 |
| 20260905050140 | 56 | 204 | 1.0 | 4.0 | 0.00 | 0.39 | 0.00 | 92 | 1016.9 |
| 20260905045625 | 56 | 220 | 1.0 | 4.0 | 0.00 | 0.39 | 0.00 | 92 | 1016.9 |
| 20260905045133 | 56 | 184 | 2.0 | 4.0 | 0.00 | 0.39 | 0.00 | 92 | 1016.8 |
| 20260905044633 | 56 | 207 | 1.0 | 2.0 | 0.00 | 0.39 | 0.00 | 92 | 1016.8 |
| 20260905044117 | 56 | 207 | 1.0 | 2.0 | 0.00 | 0.39 | 0.00 | 92 | 1016.6 |
| 20260905043614 | 55 | 207 | 0.0 | 2.0 | 0.00 | 0.39 | 0.00 | 92 | 1016.6 |
| 20260905043144 | 55 | 207 | 0.0 | 2.0 | 0.00 | 0.39 | 0.00 | 92 | 1016.6 |
| 20260905042620 | 55 | 207 | 1.0 | 2.0 | 0.00 | 0.39 | 0.00 | 92 | 1016.7 |
| 20260905042125 | 55 | 207 | 0.0 | 3.0 | 0.00 | 0.39 | 0.00 | 92 | 1016.6 |
| 20260905041630 | 55 | 207 | 1.0 | 3.0 | 0.00 | 0.39 | 0.00 | 92 | 1016.7 |
| 20260905041120 | 55 | 207 | 0.0 | 2.0 | 0.00 | 0.39 | 0.00 | 91 | 1016.6 |
| 20260905040645 | 55 | 207 | 0.0 | 2.0 | 0.00 | 0.39 | 0.00 | 91 | 1016.5 |
| 20260905040112 | 55 | 207 | 1.0 | 1.0 | 0.00 | 0.39 | 0.00 | 91 | 1016.5 |
| 20260905035624 | 55 | 207 | 0.0 | 2.0 | 0.00 | 0.39 | 0.00 | 90 | 1016.6 |
| 20260905035120 | 55 | 207 | 1.0 | 2.0 | 0.00 | 0.39 | 0.00 | 90 | 1016.5 |
| 20260905034650 | 55 | 207 | 0.0 | 2.0 | 0.00 | 0.39 | 0.00 | 90 | 1016.5 |
| 20260905034119 | 55 | 207 | 0.0 | 2.0 | 0.00 | 0.39 | 0.00 | 90 | 1016.4 |
| 20260905033626 | 55 | 207 | 1.0 | 3.0 | 0.00 | 0.39 | 0.00 | 90 | 1016.3 |
| 20260905033128 | 56 | 203 | 1.0 | 5.0 | 0.00 | 0.39 | 0.00 | 90 | 1016.4 |
| 20260905032644 | 56 | 203 | 1.0 | 5.0 | 0.00 | 0.39 | 0.00 | 89 | 1016.4 |
| 20260905032130 | 56 | 218 | 1.0 | 4.0 | 0.00 | 0.39 | 0.00 | 89 | 1016.3 |
| 20260905031647 | 56 | 220 | 1.0 | 3.0 | 0.00 | 0.39 | 0.00 | 89 | 1016.3 |
| 20260905031118 | 56 | 205 | 2.0 | 3.0 | 0.00 | 0.39 | 0.00 | 89 | 1016.2 |
| 20260905030654 | 56 | 206 | 1.0 | 3.0 | 0.00 | 0.39 | 0.00 | 88 | 1016.2 |
| 20260905030129 | 56 | 192 | 1.0 | 3.0 | 0.00 | 0.39 | 0.00 | 88 | 1016.2 |
| 20260905025647 | 56 | 216 | 1.0 | 3.0 | 0.00 | 0.39 | 0.00 | 88 | 1016.1 |
| 20260905025131 | 56 | 216 | 1.0 | 3.0 | 0.00 | 0.39 | 0.00 | 88 | 1016.0 |
| 20260905024629 | 56 | 259 | 0.0 | 2.0 | 0.00 | 0.39 | 0.00 | 88 | 1016.1 |
| 20260905024129 | 56 | 259 | 0.0 | 2.0 | 0.00 | 0.39 | 0.00 | 88 | 1016.0 |
| 20260905023617 | 56 | 259 | 1.0 | 2.0 | 0.00 | 0.39 | 0.00 | 88 | 1016.0 |
| 20260905023138 | 56 | 259 | 1.0 | 2.0 | 0.00 | 0.39 | 0.00 | 88 | 1015.9 |
| 20260905022621 | 56 | 259 | 1.0 | 2.0 | 0.00 | 0.39 | 0.00 | 87 | 1016.0 |
| 20260905022120 | 56 | 259 | 0.0 | 2.0 | 0.00 | 0.39 | 0.00 | 87 | 1015.9 |
| 20260905021625 | 56 | 259 | 1.0 | 2.0 | 0.00 | 0.39 | 0.00 | 87 | 1015.9 |
| 20260905021133 | 57 | 259 | 0.0 | 2.0 | 0.00 | 0.39 | 0.00 | 86 | 1015.9 |
| 20260905020620 | 57 | 238 | 1.0 | 2.0 | 0.00 | 0.39 | 0.00 | 86 | 1015.9 |
| 20260905020132 | 57 | 221 | 0.0 | 2.0 | 0.00 | 0.39 | 0.00 | 86 | 1015.9 |
| 20260905015620 | 57 | 273 | 0.0 | 2.0 | 0.00 | 0.39 | 0.00 | 86 | 1015.9 |
| 20260905015113 | 57 | 273 | 1.0 | 4.0 | 0.00 | 0.39 | 0.00 | 86 | 1015.9 |
| 20260905014645 | 57 | 281 | 1.0 | 4.0 | 0.00 | 0.39 | 0.00 | 85 | 1015.9 |
| 20260905014118 | 58 | 211 | 1.0 | 2.0 | 0.00 | 0.39 | 0.00 | 85 | 1015.8 |
| 20260905013630 | 58 | 202 | 0.0 | 4.0 | 0.00 | 0.39 | 0.00 | 84 | 1015.6 |
| 20260905013143 | 58 | 266 | 1.0 | 4.0 | 0.00 | 0.39 | 0.00 | 84 | 1015.6 |
| 20260905012631 | 58 | 262 | 1.0 | 3.0 | 0.00 | 0.39 | 0.00 | 84 | 1015.6 |
| 20260905012140 | 58 | 277 | 0.0 | 4.0 | 0.00 | 0.39 | 0.00 | 84 | 1015.6 |
| 20260905011625 | 59 | 296 | 1.0 | 5.0 | 0.00 | 0.39 | 0.00 | 84 | 1015.6 |
| 20260905011126 | 59 | 277 | 1.0 | 5.0 | 0.00 | 0.39 | 0.00 | 83 | 1015.6 |
| 20260905010644 | 59 | 244 | 1.0 | 4.0 | 0.00 | 0.39 | 0.00 | 84 | 1015.6 |
| 20260905010123 | 59 | 291 | 1.0 | 4.0 | 0.00 | 0.39 | 0.00 | 83 | 1015.6 |
| 20260905005634 | 59 | 346 | 1.0 | 5.0 | 0.00 | 0.39 | 0.00 | 83 | 1015.7 |
| 20260905005139 | 59 | 238 | 2.0 | 5.0 | 0.00 | 0.39 | 0.00 | 83 | 1015.6 |
| 20260905004626 | 59 | 229 | 2.0 | 4.0 | 0.00 | 0.39 | 0.00 | 83 | 1015.5 |
| 20260905004119 | 59 | 235 | 2.0 | 5.0 | 0.00 | 0.39 | 0.00 | 83 | 1015.6 |
| 20260905003625 | 59 | 263 | 2.0 | 7.0 | 0.00 | 0.39 | 0.00 | 84 | 1015.6 |
| 20260905003117 | 59 | 280 | 1.0 | 7.0 | 0.00 | 0.39 | 0.00 | 84 | 1015.5 |
| 20260905002634 | 59 | 290 | 1.0 | 4.0 | 0.00 | 0.39 | 0.00 | 83 | 1015.5 |
| 20260905002128 | 59 | 273 | 1.0 | 4.0 | 0.00 | 0.39 | 0.00 | 83 | 1015.5 |
| 20260905001631 | 59 | 286 | 0.0 | 3.0 | 0.00 | 0.39 | 0.00 | 83 | 1015.5 |
| 20260905001143 | 59 | 286 | 1.0 | 4.0 | 0.00 | 0.39 | 0.00 | 83 | 1015.5 |
| 20260905000632 | 59 | 277 | 1.0 | 4.0 | 0.00 | 0.39 | 0.00 | 83 | 1015.5 |
| 20260905000132 | 59 | 241 | 1.0 | 3.0 | 0.00 | 0.39 | 0.00 | 83 | 1015.5 |
| 20260904235642 | 59 | 292 | 1.0 | 2.0 | 0.00 | 0.39 | 0.00 | 82 | 1015.4 |
| 20260904235121 | 59 | 281 | 1.0 | 3.0 | 0.00 | 0.39 | 0.00 | 81 | 1015.4 |
| 20260904234646 | 59 | 312 | 0.0 | 5.0 | 0.00 | 0.39 | 0.00 | 81 | 1015.4 |
| 20260904234119 | 59 | 271 | 1.0 | 5.0 | 0.00 | 0.39 | 0.00 | 81 | 1015.3 |
| 20260904233621 | 59 | 289 | 1.0 | 8.0 | 0.00 | 0.39 | 0.00 | 81 | 1015.2 |
| 20260904233147 | 59 | 300 | 1.0 | 4.0 | 0.00 | 0.39 | 0.00 | 81 | 1015.2 |
| 20260904232644 | 60 | 286 | 0.0 | 4.0 | 0.00 | 0.39 | 0.00 | 80 | 1015.3 |
| 20260904232124 | 60 | 313 | 1.0 | 3.0 | 0.00 | 0.39 | 0.00 | 80 | 1015.2 |
| 20260904231629 | 60 | 307 | 1.0 | 3.0 | 0.00 | 0.39 | 0.00 | 79 | 1015.1 |
| 20260904231114 | 60 | 238 | 1.0 | 3.0 | 0.00 | 0.39 | 0.00 | 80 | 1015.2 |
| 20260904230614 | 60 | 272 | 1.0 | 3.0 | 0.00 | 0.39 | 0.00 | 79 | 1015.1 |
| 20260904230136 | 60 | 55 | 1.0 | 5.0 | 0.00 | 0.39 | 0.00 | 79 | 1015.2 |
| 20260904225647 | 60 | 246 | 1.0 | 5.0 | 0.00 | 0.39 | 0.00 | 78 | 1015.2 |
| 20260904225126 | 60 | 238 | 1.0 | 6.0 | 0.00 | 0.39 | 0.00 | 78 | 1015.1 |
| 20260904224633 | 60 | 205 | 2.0 | 6.0 | 0.00 | 0.39 | 0.00 | 78 | 1015.1 |
| 20260904224114 | 61 | 292 | 1.0 | 6.0 | 0.00 | 0.39 | 0.00 | 78 | 1015.1 |
| 20260904223632 | 61 | 316 | 3.0 | 7.0 | 0.00 | 0.39 | 0.00 | 78 | 1015.0 |
| 20260904223113 | 61 | 283 | 2.0 | 7.0 | 0.00 | 0.39 | 0.00 | 78 | 1015.0 |
| 20260904222642 | 61 | 266 | 2.0 | 5.0 | 0.00 | 0.39 | 0.00 | 77 | 1015.0 |
| 20260904222150 | 61 | 240 | 1.0 | 6.0 | 0.00 | 0.39 | 0.00 | 77 | 1015.0 |
| 20260904221627 | 61 | 271 | 2.0 | 6.0 | 0.00 | 0.39 | 0.00 | 77 | 1015.0 |
| 20260904221120 | 61 | 327 | 3.0 | 6.0 | 0.00 | 0.39 | 0.00 | 77 | 1015.0 |
| 20260904220654 | 61 | 263 | 2.0 | 14.0 | 0.00 | 0.39 | 0.00 | 77 | 1015.0 |
| 20260904220147 | 61 | 264 | 4.0 | 14.0 | 0.00 | 0.39 | 0.00 | 76 | 1014.9 |
| 20260904215638 | 61 | 330 | 2.0 | 6.0 | 0.00 | 0.39 | 0.08 | 77 | 1014.8 |
| 20260904215120 | 61 | 311 | 2.0 | 7.0 | 0.00 | 0.39 | 0.08 | 77 | 1014.7 |
| 20260904214615 | 61 | 323 | 2.0 | 7.0 | 0.00 | 0.39 | 0.08 | 78 | 1014.7 |
| 20260904214136 | 61 | 295 | 2.0 | 7.0 | 0.00 | 0.39 | 0.08 | 78 | 1014.7 |
| 20260904213620 | 61 | 244 | 1.0 | 4.0 | 0.00 | 0.39 | 0.08 | 78 | 1014.7 |
| 20260904213123 | 61 | 279 | 2.0 | 6.0 | 0.00 | 0.39 | 0.08 | 78 | 1014.7 |
| 20260904212634 | 62 | 260 | 1.0 | 11.0 | 0.00 | 0.39 | 0.08 | 77 | 1014.6 |
| 20260904212118 | 62 | 284 | 3.0 | 11.0 | 0.00 | 0.39 | 0.08 | 77 | 1014.5 |
| 20260904211619 | 62 | 259 | 2.0 | 6.0 | 0.00 | 0.39 | 0.08 | 77 | 1014.6 |
| 20260904211143 | 62 | 286 | 1.0 | 6.0 | 0.00 | 0.39 | 0.08 | 76 | 1014.5 |
| 20260904210619 | 62 | 269 | 2.0 | 7.0 | 0.00 | 0.39 | 0.08 | 76 | 1014.5 |
| 20260904210142 | 62 | 257 | 2.0 | 7.0 | 0.00 | 0.39 | 0.08 | 76 | 1014.5 |
| 20260904205626 | 62 | 261 | 2.0 | 5.0 | 0.00 | 0.39 | 0.08 | 76 | 1014.4 |
| 20260904205118 | 62 | 246 | 2.0 | 6.0 | 0.00 | 0.39 | 0.08 | 76 | 1014.5 |
| 20260904204630 | 62 | 233 | 2.0 | 6.0 | 0.00 | 0.39 | 0.08 | 76 | 1014.4 |
| 20260904204125 | 62 | 266 | 2.0 | 7.0 | 0.00 | 0.39 | 0.08 | 76 | 1014.4 |